www.pogodaiklimat.ru

Погода и климат >> Архив погоды >> Филиппины >> Диполог


ПОГОДА в Дипологе

  • Прогноз погоды в Дипологе
  • Монитор погоды в Дипологе

АРХИВ ПОГОДЫ в Дипологе

Время (UTC), дата Ветер
(напр.,м/с)
 
Видим.   Явления Облачность Т
(С)
Тd
(С)
f
(%)
Тe
(С)
Тes
(С)
Комфортность P
(гПа)
Po
(гПа)
Тmin
(С)
Tmax
(С)
R
(мм)
R24
(мм)
S
(см)
21 16.01 С 2 16 км {дождь} 9/3 540 м
[Cu med, cong Ac As]
+24.5 +22.2 87 +32 +32 очень
душно
1010.5 1010.1
00 17.01 Ю 1 18 км мгла {дождь, туман} 10/3 540 м
[Cu med, cong Ac As Cs]
+25.1 +22.5 86 +33 +35 очень
душно
1012.2 1011.8 +24.2 2
03 17.01 С 2 18 км мгла {туман} 9/3 540 м
[Cu med, cong Ac As Cs]
+29.2 +22.1 66 +38 +44 очень
душно
1011.4 1011.0
06 17.01 СВ 1 20 км мгла {туман} 5/3 540 м
[Cu med, cong Ac As Ci fib]
+31.4 +20.8 53 +38 +47 очень
душно
1009.3 1008.9
09 17.01 В 1 18 км мгла {туман} 10/3 540 м
[Cu med, cong Cs]
+30.0 +21.1 59 +38 +38 очень
душно
1009.4 1009.0
12 17.01 В 1 18 км {туман} 8/3 540 м
[Cu med, cong Ac As]
+27.2 +24.0 83 +38 +38 очень
душно
1011.4 1011.0 +31.5
15 17.01 С 1 20 км в посл. час ливневой дождь 5/3 540 м
[Cu med, cong Ac trans]
+26.2 +23.5 85 +36 +36 очень
душно
1011.8 1011.4
18 17.01 В 1 18 км {ливн. осадки} 8/3 540 м
[Cu med, cong Ac As]
+26.2 +22.9 82 +35 +35 очень
душно
1010.7 1010.3 0.4
21 17.01 С 1 16 км 9/3 540 м
[Cu med, cong Ac As]
+26.0 +23.0 84 +35 +35 очень
душно
1010.4 1010.0
00 18.01 В 1 18 км мгла {туман} 9/3 540 м
[Cu med, cong Ac trans Cs]
+26.6 +22.2 77 +35 +37 очень
душно
1012.5 1012.1 +25.2 0.4
03 18.01 В 1 18 км мгла {туман} 9/3 540 м
[Cu med, cong Ac trans Cs]
+26.6 +22.2 77 +35 +42 очень
душно
1012.5 1012.1 +25.2 0.4
06 18.01 СВ 1 18 км мгла {туман} 9/3 540 м
[Cu med, cong Ac As Cs]
+29.8 +20.9 59 +37 +43 очень
душно
1009.9 1009.5
09 18.01 С 1 18 км мгла {туман} 9/4 540 м
[Cu med, cong Ac As]
+27.8 +21.2 67 +35 +35 очень
душно
1009.6 1009.2
12 18.01 СВ 2 16 км {туман} 9/4 540 м
[Cu med, cong Ac As]
+26.6 +22.5 78 +35 +35 очень
душно
1011.7 1011.3 +31.1
15 18.01 В 1 18 км 8/3 540 м
[Cu med, cong Ac As]
+26.0 +22.7 82 +34 +34 очень
душно
1011.7 1011.3
18 18.01 СВ 1 16 км в посл. час ливневой дождь 10/4 540 м
[Cu med, cong Ac As]
+24.9 +23.0 89 +33 +33 очень
душно
1010.6 1010.2 0.1
21 18.01 СВ 3 10 км слаб. ливневой дождь 10/4 540 м
[Cu med, cong Ac As]
+24.0 +22.6 92 +31 +31 очень
душно
1010.2 1009.8
00 19.01 СВ 2 18 км в посл. час ливневой дождь 10/3 540 м
[Cu med, cong Ac As]
+25.8 +23.4 87 +35 +36 очень
душно
1012.4 1012.0 +23.8 3
03 19.01 СВ 2 18 км в посл. час ливневой дождь {туман} 9/3 540 м
[Cu med, cong Ac As]
+27.6 +23.0 76 +37 +42 очень
душно
1011.7 1012.0
06 19.01 СВ 2 18 км мгла {туман} 9/3 540 м
[Cu med, cong Ac As Cs]
+30.2 +21.7 60 +38 +43 очень
душно
1009.1 1009.0 0.3
09 19.01 СВ 1 18 км в посл. час ливневой дождь {туман} 9/3 540 м
[Cu med, cong Ac As]
+26.8 +22.7 78 +35 +35 очень
душно
1009.2 1009.0
12 19.01 В 1 16 км {ливн. осадки, туман} 9/3 540 м
[Cu med, cong Ac trans]
+25.8 +22.5 82 +34 +34 очень
душно
1010.7 1010.3 +31.0 0.2
15 19.01 СВ 1 16 км 10/3 540 м
[Cu med, cong Ac As]
+25.4 +22.4 83 +33 +33 очень
душно
1010.8 1010.4
18 19.01 ЮВ 1 16 км 10/4 540 м
[Cu med, cong Ac As]
+24.3 +22.8 91 +32 +32 очень
душно
1009.3 1008.9
21 19.01 В 1 16 км {ливн. осадки} 10/3 540 м
[Cu med, cong Ac As]
+24.2 +23.0 93 +32 +32 очень
душно
1009.2 1008.8
03 20.01 СВ 2 18 км мгла {туман} 10/3 540 м
[Cu med, cong Ac As]
+28.4 +23.6 75 +39 +42 очень
душно
1010.2 1010.0
06 20.01 СВ 1 18 км мгла {туман} 10/3 540 м
[Cu med, cong Ac As]
+29.6 +23.7 71 +41 +44 опасность
перегрева
1007.6 1008.0
09 20.01 С 3 18 км мгла {туман} 10/3 540 м
[Cu med, cong Ac As]
+27.6 +23.6 79 +38 +38 очень
душно
1007.2 1007.0
12 20.01 СВ 1 16 км {туман} 10/3 540 м
[Cu med, cong Ac As]
+26.8 +22.7 78 +35 +35 очень
душно
1008.8 1008.4 +30.0
15 20.01 С 1 18 км 8/3 540 м
[Cu med, cong Ac As]
+26.8 +24.1 85 +37 +37 очень
душно
1008.8 1008.4
18 20.01 В 1 16 км 10/4 540 м
[Cu med, cong Ac As]
+25.8 +24.0 90 +36 +36 очень
душно
1007.5 1007.1
21 20.01 СВ 1 16 км 10/3 540 м
[Cu med, cong Ac As]
+26.0 +24.1 89 +36 +36 очень
душно
1007.2 1006.8
00 21.01 Ю 1 18 км мгла {туман} 10/3 540 м
[Cu med, cong Ac As]
+26.6 +24.2 87 +37 +38 очень
душно
1009.2 1009.0 +25.0
03 21.01 ЮЗ 2 18 км мгла {туман} 10/3 540 м
[Cu med, cong Cs]
+28.8 +24.8 79 +41 +50 опасность
перегрева
1008.9 1009.0
06 21.01 З 3 20 км мгла {туман} 8/3 540 м
[Cu med, cong Cs]
+31.4 +24.2 66 +44 +50 опасность
перегрева
1005.9 1006.0
09 21.01 З 3 20 км мгла {туман} 8/3 540 м
[Cu med, cong Ac As]
+28.4 +24.7 80 +40 +40 очень
душно
1006.5 1007.0
12 21.01 СЗ 2 18 км {туман} 6/3 540 м
[Cu med, cong Ac As]
+26.6 +24.3 87 +37 +37 очень
душно
1008.9 1008.5 +32.0
15 21.01 Ю 1 18 км 10/3 540 м
[Cu med, cong Ac As]
+25.9 +24.3 91 +36 +36 очень
душно
1009.5 1009.1
18 21.01 СВ 2 18 км в посл. час ливневой дождь 10/3 540 м
[Cu med, cong Ac As]
+25.2 +24.0 93 +35 +35 очень
душно
1008.3 1007.9 0.0
21 21.01 Ю 1 18 км 9/3 540 м
[Cu med, cong Ac As]
+25.0 +23.6 92 +34 +34 очень
душно
1008.3 1007.9
00 22.01 штиль 0 20 км мгла {туман} 6/3 540 м
[Cu med, cong Ac As Cs]
+26.0 +24.1 89 +36 +40 очень
душно
1009.3 1009.0 +24.5 0.0
03 22.01 З 1 20 км мгла {туман} 8/3 540 м
[Cu med, cong Cs]
+29.0 +25.1 80 +42 +54 опасность
перегрева
1009.1 1009.0
06 22.01 СВ 2 20 км мгла {туман} 8/3 540 м
[Cu med, cong Cs]
+31.8 +24.4 65 +44 +51 опасность
перегрева
1006.8 1007.0
09 22.01 С 1 18 км мгла {туман} 9/3 540 м
[Cu med, cong Ac As]
+29.0 +25.1 80 +42 +42 опасность
перегрева
1006.7 1007.0
12 22.01 СЗ 1 18 км {туман} 9/3 540 м
[Cu med, cong Ac As]
+27.0 +24.5 86 +38 +38 очень
душно
1009.4 1009.0 +32.5
15 22.01 СЗ 1 18 км 8/3 540 м
[Cu med, cong Ac As]
+26.1 +24.6 91 +37 +37 очень
душно
1009.4 1009.0
18 22.01 штиль 0 18 км 8/3 540 м
[Cu med, cong Ac As]
+25.8 +24.3 91 +36 +36 очень
душно
1008.8 1008.4
21 22.01 ЮВ 1 20 км 4/3 540 м
[Cu med, cong Ci fib]
+24.9 +23.7 93 +34 +34 очень
душно
1008.8 1008.4
00 23.01 Ю 1 18 км мгла {туман} 9/3 540 м
[Cu med, cong Ac As]
+26.8 +24.3 86 +37 +39 очень
душно
1010.4 1010.0 +24.5
03 23.01 СЗ 1 18 км мгла {туман} 9/3 540 м
[Cu med, cong Ac As Cs]
+29.4 +24.7 76 +42 +50 опасность
перегрева
1010.7 1010.3
06 23.01 СВ 2 18 км мгла {туман} 9/3 540 м
[Cu med, cong Ac As Cs]
+30.2 +24.4 71 +42 +47 опасность
перегрева
1007.8 1007.4
09 23.01 З 2 18 км мгла {туман} 9/3 540 м
[Cu med, cong Ac As]
+28.4 +25.0 82 +41 +41 опасность
перегрева
1007.6 1007.2
12 23.01 ЮВ 1 16 км в посл. час ливневой дождь {туман} 10/3 540 м
[Cu med, cong Ac As]
+27.1 +24.8 87 +39 +39 очень
душно
1009.0 1008.6 +31.2
15 23.01 штиль 0 16 км 10/3 540 м
[Cu med, cong Ac As]
+26.2 +24.3 89 +36 +36 очень
душно
1009.3 1008.9
18 23.01 штиль 0 16 км 9/3 540 м
[Cu med, cong Cs]
+25.8 +24.5 93 +36 +36 очень
душно
1008.0 1007.6

 

Местоположение метеостанции Диполог (Филиппины): широта 8.60 долгота 123.35 высота над уровнем моря 5 м.

В архиве по умолчанию представлена погода в Дипологе за последнюю неделю. Архивные данные за месяц целиком и за предыдущие месяцы, начиная с января 2011 года, Вы можете получить, выбрав интересующий диапазон дат из раскрывающегося списка и нажав кнопку "Ввод!".


*Определитесь, кто Вы:
робот инопланетянин человек

Внимание! Время в таблицах - всемирное. Для получения местного времени необходимо прибавить поправку, которая равна 8 ч.

Смотрите также архив погоды в соседних городах и на ближайших метеорологических станциях:

Погода в Думагете (Филиппины) (78 км)
Погода в Кагаян-де-Оро (Филиппины) (104 км)
Погода в Тагбиларане (Филиппины) (124 км)
Погода в Котобато (Филиппины) (186 км)
Погода в Малайбалае (Филиппины) (197 км)
Погода в Мактане (Филиппины) (201 км)
Погода в Маасине (Филиппины) (235 км)
Погода в Замбоанге (Филиппины) (237 км)
Погода в Бутуане (Филиппины) (240 км)
Погода в Серигао Сити (Филиппины) (271 км)

Пояснения к столбцам:

Ветер - указаны скорость ветра в м/с - средняя за 10 мин, порывы в срок и между сроками (в фигурных скобках) и направление, откуда дует ветер: С - северный, СВ - северо-восточный, В - восточный, ЮВ - юго-восточный, Ю - южный, ЮЗ - юго-западный, З - западный, СЗ - северо-западный.
Видимость - горизонтальная дальность видимости в метрах или километрах. При видимости от 1 до 10 км при отсутствии осадков обычно наблюдается дымка, при ухудшении видимости до 1 км и менее - туман. В сухую погоду видимость может ухудшаться дымом, пылью или мглою.
Явления - указаны атмосферные явления, наблюдавшиеся в срок или в последний час перед сроком; фигурными скобками обозначены явления, наблюдавшиеся между сроками (за 1-3 часа до срока); квадратными скобками обозначены град или гололедные отложения с указанием их диаметра в мм.
Облачность - указаны через наклонную черту общая и нижняя облачность в баллах и высота нижней границы облаков в метрах; квадратными скобками обозначены формы облаков: Ci - перистые, Cs - перисто-слоистые, Cc - перисто-кучевые, Ac - высококучевые, As - высокослоистые, Sc - слоисто-кучевые, Ns - слоисто-дождевые, Cu - кучевые, Cb - кучево-дождевые. Подробнее классификацию облаков см. в Атласе облаков (PDF).
T - Температура воздуха - температура, измеренная на высоте 2 м над землей.
Td - Температура точки росы - температура, при понижении до которой содержащийся в воздухе водяной пар достигнет насыщения.
f - Относительная влажность воздуха - влажноcть воздуха, измеренная на высоте 2 м над землей.
Te - Эффективная температура - температура, которую ощущает одетый по сезону человек в тени. Характеристика душности погоды. При расчете учитывается влияние влажности воздуха и скорости ветра на теплоощущения человека.
Tes - Эффективная температура на солнце - температура, которую ощущает человек, с поправкой на солнечный нагрев. Характеристика знойности погоды. Зависит от высоты солнца над горизонтом, облачности и скорости ветра. Ночью, в пасмурную погоду, а также при ветре 12 м/с и более поправка равна нулю.
P - Атмосферное давление - приведенное к уровню моря атмосферное давление.
Po - Атмосферное давление - измеренное на уровне метеостанции атмосферное давление.
Tmin - Минимальная температура - минимум температуры воздуха на высоте 2 м над землей.
Tmax - Максимальная температура - максимум температуры воздуха на высоте 2 м над землей.
R - Количество осадков - Количество выпавших осадков за период времени, мм. При наведении курсора мыши на число - период времени, за который выпало указанное количество осадков.
R24 - Количество осадков - Количество выпавших осадков за 24 часа, мм.
S - Снежный покров - Высота снежного покрова, см. При наведении курсора мыши на число - состояние снежного покрова и степень покрытия местности в баллах.